Weather in Chuhloma

Russia / Kostroma Oblast     58°45′12″N   42°41′18″E
temp.,
°C
wind,
m/s
gust,
m/s
humid.,
%
clouds,
%
prec.,
mm/h
press.,
hPa
HPBL,
m
3 march, wed
wed300:00−6nnw51391100 0.2 1004830
03:00−7nw41293100 0.2 1006656
06:00−7nw51092100 0.1 1006621
09:00−7nw5990100 0.3 1007726
12:00−4wnw41087100 0.1 1006802
15:00−3w499092 0.1 1005720
18:00−3w4119599 0.6 1002809
21:00−3w41194100 0.9 1000721
4 march, thu
thu400:00−3wsw51195100 0.9 996804
03:00−2wsw51196100 2.1 994841
06:00−2w41190100 0.6 9901067
09:00−4w5109095 0.8 990766
12:00−3nw5995100 0.5 992715
15:00−4nnw588799 0.8 995853
18:00−8nnw379289 0.1 997149
21:00−12nw269656 0.1 999113
5 march, fri
fri500:00−15nw22960 0.0 100120
03:00−16wnw22970 0.0 100220
06:00−16w239752 0.0 100326
09:00−12w259668 0.1 1004222
12:00−8w2592100 0.1 1005519
15:00−6w3590100 0.2 1006774
18:00−10w2396100 0.1 100788
21:00−11wnw2696100 0.3 1009196
6 march, sat
sat600:00−14nnw259773 0.1 1010119
03:00−19nw239750 0.1 101242
06:00−22nw23990 0.0 101336
09:00−18nw24960 0.0 1013178
12:00−12wnw359087 0.0 1013647
15:00−11wnw368893 0.1 1012851
18:00−13w2396100 0.1 101173
21:00−17w239767 0.1 101120
7 march, sun
sun700:00−17ssw339925 0.0 100961
03:00−16s499855 0.0 1005231
06:00−13s51392100 0.0 1001473
09:00−11s61393100 0.6 996718
12:00−8s71392100 0.6 991864
15:00−5s61293100 1.3 989881
18:00−9wnw41088100 2.3 989769
21:00−15wsw238867 2.3 99022